This is the latest recevied weather packets stored in our database for station/object KA3WVU. If no packets are shown the sender has not sent any weather packets the latest 10 day(s).
| Time | Temp. | Humidity | Pressure | Rain* | Wind** | Luminosity | Snow |
|---|---|---|---|---|---|---|---|
| 1777935256 | 18.89° C | 49% | 1007.5 hPa | 0 mm | - | 40 W/m² | - |
| 1777934953 | 18.89° C | 50% | 1007.7 hPa | 0 mm | - | 42 W/m² | - |
| 1777934650 | 18.89° C | 49% | 1007.4 hPa | 0 mm | - | 40 W/m² | - |
| 1777934347 | 18.89° C | 49% | 1007.5 hPa | 0 mm | - | 61 W/m² | - |
| 1777934042 | 18.33° C | 50% | 1007.7 hPa | 0 mm | - | 61 W/m² | - |
| 1777933738 | 18.33° C | 50% | 1007.5 hPa | 0 mm | - | 44 W/m² | - |
| 1777933435 | 18.33° C | 50% | 1007.4 hPa | 0 mm | - | 42 W/m² | - |
| 1777933134 | 18.33° C | 49% | 1007.7 hPa | 0 mm | - | 35 W/m² | - |
| 1777932830 | 18.89° C | 47% | 1007.4 hPa | 0 mm | - | 34 W/m² | - |
| 1777932528 | 19.44° C | 47% | 1007.5 hPa | 0 mm | - | 40 W/m² | - |
| 1777932224 | 20° C | 45% | 1007.4 hPa | 0 mm | - | 84 W/m² | - |
| 1777931922 | 19.44° C | 46% | 1007.5 hPa | 0 mm | - | 124 W/m² | - |
| 1777931618 | 20° C | 46% | 1007.5 hPa | 0 mm | - | 46 W/m² | - |
| 1777931314 | 20.56° C | 44% | 1007.7 hPa | 0 mm | - | 91 W/m² | - |
| 1777931011 | 20° C | 44% | 1007.4 hPa | 0 mm | - | 219 W/m² | - |
| 1777930708 | 19.44° C | 44% | 1007.4 hPa | 0 mm | - | 171 W/m² | - |
| 1777930403 | 19.44° C | 45% | 1007.4 hPa | 0 mm | - | 85 W/m² | - |
| 1777930101 | 18.89° C | 46% | 1007.7 hPa | 0 mm | - | 86 W/m² | - |
| 1777929797 | 19.44° C | 46% | 1007.5 hPa | 0 mm | - | 56 W/m² | - |
| 1777929495 | 20.56° C | 43% | 1007.4 hPa | 0 mm | - | 51 W/m² | - |
| 1777929191 | 20.56° C | 43% | 1007.4 hPa | 0 mm | - | 212 W/m² | - |
| 1777928888 | 21.11° C | 41% | 1007.4 hPa | 0 mm | - | 75 W/m² | - |
| 1777928586 | 20.56° C | 41% | 1007.7 hPa | 0 mm | - | 263 W/m² | - |
| 1777928283 | 19.44° C | 42% | 1007.4 hPa | 0 mm | - | 97 W/m² | - |
| 1777927980 | 20° C | 42% | 1007.3 hPa | 0 mm | - | 273 W/m² | - |
* Rain latest hour (hover to see other rain measurements)
** Current wind speed in m/s (hover to see current wind gust speed)